Wind_Speed
37 38 39 41 43 44 45 45 46 46 46 47 47 47 46 46 46 46 45 45 45 45 45 45 44 44 43 43 43 42 42 42 42 42 42 43 42 41 40 40 40 40 39
36 37 38 40 43 44 45 46 47 47 47 48 48 48 47 47 47 47 47 46 46 46 47 47 47 46 46 46 46 45 44 44 43 43 43 43 43 43 42 42 42 42 42
35 36 37 39 42 43 44 45 46 46 47 48 48 48 48 47 47 48 48 47 47 48 48 48 47 47 47 46 47 46 45 45 45 44 44 44 43 43 43 43 43 42 42
35 36 37 38 40 42 43 44 45 45 46 47 48 48 48 48 48 48 49 48 48 49 49 49 48 49 49 48 47 47 46 46 46 46 45 44 44 44 44 44 44 44 43
34 35 36 37 39 40 41 43 44 45 46 47 48 49 49 49 48 49 49 49 49 49 49 50 49 50 51 50 49 49 48 48 48 47 47 46 46 46 45 45 46 46 45
33 34 35 36 38 39 40 41 43 44 46 47 48 49 49 49 50 49 49 50 50 49 49 50 51 50 50 50 50 50 51 50 50 49 49 48 48 48 48 48 47 47 47
33 34 34 35 37 38 40 41 43 44 45 46 47 48 48 49 50 50 51 51 51 50 50 50 52 52 52 52 51 51 51 52 52 51 50 49 49 49 49 49 48 48 47
32 32 33 34 35 37 38 40 41 43 45 46 47 47 47 49 50 50 51 51 51 51 51 52 53 53 53 53 53 52 51 52 52 52 51 51 51 51 50 50 49 49 48
30 31 33 34 35 36 38 39 41 42 44 46 47 47 47 48 49 50 51 52 52 52 52 52 52 54 54 53 54 53 53 53 53 53 52 51 51 51 51 51 50 50 49
30 31 33 34 35 36 38 39 40 41 43 44 46 47 47 47 48 49 50 52 53 53 53 52 53 54 53 54 54 55 55 54 54 54 53 52 52 52 52 51 51 51 50
29 30 32 34 35 35 36 37 39 41 42 43 44 46 47 49 49 49 49 51 52 53 53 53 53 53 53 53 54 54 54 53 54 55 54 53 52 52 52 52 51 51 51
30 31 32 33 34 35 36 36 37 39 41 42 43 44 45 47 49 49 50 51 51 52 52 52 52 52 52 53 53 53 53 52 53 54 54 54 53 52 52 52 52 52 52
32 33 34 34 34 34 34 35 36 38 39 41 43 43 44 45 47 48 48 49 49 49 50 50 51 52 52 53 53 54 53 53 53 53 53 54 53 53 53 53 53 53 53
34 34 35 35 35 35 35 35 36 37 38 40 42 42 44 45 46 46 47 48 48 48 49 50 51 52 52 53 53 53 53 53 53 53 53 54 54 54 54 54 54 54 54
35 35 36 36 36 36 36 37 37 37 38 40 41 41 43 43 44 45 46 47 48 48 48 49 50 51 52 52 53 54 54 53 53 53 53 53 54 54 54 54 54 55 55
36 36 37 36 36 36 36 37 38 39 39 39 39 40 41 42 42 44 45 46 47 47 48 49 50 50 50 51 53 54 54 54 54 54 54 53 54 55 55 55 55 55 55
36 36 36 36 36 36 36 37 38 39 40 39 39 39 41 42 42 43 44 45 47 47 47 47 48 48 49 51 53 54 54 54 54 53 54 54 54 55 56 56 56 55 55
36 36 36 36 36 36 37 37 38 39 39 39 39 40 42 42 43 43 44 45 46 48 48 48 47 47 47 48 49 51 52 53 53 52 53 53 54 55 56 56 56 55 54
35 35 35 36 36 36 37 37 38 38 39 39 40 41 41 42 43 43 43 44 44 45 46 47 47 47 47 47 47 49 50 50 50 51 52 52 52 52 53 54 55 54 54
35 35 35 35 36 37 37 37 37 37 38 39 40 41 41 41 41 41 42 43 43 43 43 44 45 46 46 47 47 47 48 49 49 49 49 49 49 49 51 52 53 53 53
35 35 35 35 36 36 36 36 36 36 37 37 38 39 39 39 40 40 41 42 42 42 43 43 44 45 45 46 46 47 48 48 48 49 49 49 50 50 50 51 52 52 52
34 34 34 34 35 35 35 35 34 34 34 34 35 36 37 38 38 39 39 40 41 41 42 42 43 44 45 45 45 46 47 48 48 48 48 48 49 50 50 50 50 51 52
34 34 34 34 34 35 35 34 34 33 33 33 34 34 35 36 36 37 39 40 40 41 42 43 43 44 44 45 46 46 47 47 48 48 48 48 49 50 50 51 50 51 52
35 35 35 35 34 34 35 35 34 34 33 33 33 32 32 33 34 35 36 37 39 40 41 42 43 44 45 45 46 46 46 45 46 46 46 47 47 48 49 49 50 49 49
36 35 35 35 34 35 35 35 35 34 34 34 33 33 32 32 33 34 35 37 38 39 41 42 43 44 44 45 45 45 45 45 46 46 46 46 46 47 47 48 48 48 48
35 35 35 34 34 35 35 35 35 34 34 34 34 33 33 33 34 34 35 36 37 38 39 41 41 42 43 44 44 44 44 44 44 45 45 45 46 46 47 47 47 47 47
Wind_Direction
256 254 253 252 250 249 248 248 247 248 248 248 248 248 248 249 249 249 250 250 250 249 249 250 252 253 254 255 256 256 256 256 255 255 253 252 251 251 252 253 254 255 255
259 258 256 253 251 250 250 249 248 247 248 248 248 249 249 249 249 250 249 250 250 249 249 251 252 252 254 256 257 256 256 256 256 255 254 252 252 252 253 254 255 256 256
261 260 258 255 253 252 251 250 249 248 248 248 248 248 249 249 249 250 250 251 251 250 250 252 253 253 254 255 256 256 256 255 255 255 254 252 252 253 253 255 255 255 257
265 261 258 255 254 253 252 251 250 248 248 248 248 248 249 249 249 250 251 252 253 252 252 252 254 254 254 255 255 254 256 255 254 253 253 252 253 254 254 254 254 255 256
267 264 261 258 255 253 253 252 251 249 248 248 248 248 249 249 250 251 251 252 253 253 253 253 253 253 254 255 255 254 255 254 253 253 253 253 253 253 253 254 254 255 256
268 265 263 259 257 255 254 253 251 250 249 249 249 250 250 250 251 251 251 252 253 253 253 253 252 253 255 256 255 254 255 253 252 252 253 253 253 253 253 254 255 256 257
269 266 264 260 259 257 256 254 253 252 251 250 251 251 252 251 252 252 251 252 252 253 252 254 254 255 256 255 255 254 254 253 253 253 253 254 254 254 254 254 255 256 257
269 266 264 261 260 259 258 256 254 254 253 252 252 253 253 253 253 253 252 252 252 253 253 255 256 255 256 255 255 254 254 254 253 254 255 256 256 255 255 255 255 256 257
273 269 266 264 263 262 261 259 256 255 254 253 253 254 255 254 254 254 253 252 253 253 254 255 255 255 255 255 254 254 255 254 253 253 254 255 255 256 257 257 257 257 258
279 275 271 270 267 265 264 261 259 257 256 256 255 254 255 255 255 255 254 253 253 254 254 254 255 255 255 255 254 254 254 254 253 253 253 254 254 255 257 258 258 258 258
279 277 274 273 270 269 267 264 261 260 259 257 256 256 256 256 256 257 257 255 254 254 254 254 255 253 254 254 254 254 254 254 253 252 252 252 253 255 256 257 257 257 258
281 280 277 275 274 273 270 268 265 263 261 259 258 258 257 257 257 258 258 258 256 255 255 254 253 252 252 253 254 254 253 253 252 252 251 252 254 255 256 257 257 257 258
283 282 279 277 275 274 273 270 268 266 264 262 260 260 259 258 258 258 258 258 257 254 254 253 253 252 253 254 254 253 252 252 252 252 252 253 254 255 256 257 258 258 259
284 282 279 277 276 275 274 272 270 268 266 265 263 262 260 260 259 258 257 256 255 254 254 254 254 254 254 254 254 253 252 252 252 253 253 253 254 255 256 258 259 259 260
284 283 280 279 278 276 275 273 272 270 269 267 265 263 262 262 260 259 258 256 255 254 254 254 255 255 255 254 253 252 252 252 253 253 254 254 255 256 257 258 259 260 260
284 283 280 279 278 277 275 274 273 272 271 268 265 264 264 263 262 262 260 257 256 255 256 256 256 255 255 254 252 252 252 253 253 254 255 255 256 256 257 258 259 259 260
284 283 280 279 278 277 275 274 274 273 270 267 265 264 264 264 264 263 262 259 257 256 256 257 256 256 256 255 253 252 253 253 254 255 255 256 256 257 257 258 259 260 260
284 282 281 280 279 278 278 276 276 273 270 267 266 266 264 264 264 264 263 262 260 257 256 256 257 256 255 254 254 253 252 253 254 254 255 256 256 257 257 258 258 259 260
285 283 281 281 281 280 280 279 277 274 271 269 267 266 266 265 264 263 263 262 260 258 257 256 256 256 256 255 255 254 253 254 254 254 256 257 257 258 257 258 259 259 260
286 284 283 283 282 281 281 280 278 276 274 273 271 269 267 266 265 263 262 262 261 259 258 258 257 256 255 254 255 255 255 254 254 255 256 257 257 259 260 260 260 259 260
287 286 285 285 283 282 281 281 279 277 276 276 274 271 269 267 265 264 263 262 261 260 259 258 257 256 255 255 256 257 256 256 255 255 255 256 258 259 260 261 260 260 259
288 287 287 286 285 283 282 280 278 277 277 277 276 273 270 268 266 265 264 263 262 261 260 259 258 257 257 256 256 257 258 258 257 256 256 257 258 259 260 261 261 261 260
289 288 289 288 287 284 282 281 278 277 277 277 276 275 273 271 269 266 265 264 263 261 260 260 259 258 258 257 257 258 259 259 258 257 257 257 259 260 261 261 261 262 262
290 289 289 289 288 286 283 281 279 278 277 277 276 275 273 271 269 267 266 265 265 263 263 263 261 260 259 258 259 259 260 259 258 257 257 258 259 260 260 261 261 261 262
292 290 289 289 288 287 284 281 280 279 278 277 276 275 275 273 271 268 266 266 266 265 265 265 263 261 260 259 259 259 260 260 259 258 257 258 259 260 261 261 262 262 262
293 292 290 289 288 287 286 283 281 279 279 278 276 275 275 274 272 271 269 269 269 268 267 266 265 262 261 260 259 260 260 260 260 259 258 258 259 260 261 262 262 262 262
Height
5673 5674 5675 5678 5680 5683 5686 5689 5692 5695 5697 5700 5703 5706 5709 5712 5715 5719 5722 5725 5727 5730 5733 5736 5738 5741 5743 5745 5747 5748 5750 5751 5752 5754 5757 5760 5762 5765 5768 5770 5772 5775 5776
5664 5664 5665 5667 5670 5672 5674 5677 5680 5683 5686 5689 5692 5695 5698 5701 5704 5707 5711 5713 5716 5719 5722 5725 5727 5730 5732 5734 5736 5738 5739 5741 5742 5744 5747 5750 5753 5756 5758 5760 5763 5765 5767
5654 5655 5656 5657 5659 5661 5663 5666 5668 5671 5674 5677 5680 5683 5686 5690 5693 5696 5699 5702 5704 5707 5711 5713 5715 5718 5721 5723 5725 5727 5728 5730 5732 5734 5736 5739 5742 5745 5748 5750 5753 5755 5756
5645 5645 5646 5647 5649 5651 5653 5655 5657 5660 5663 5665 5668 5672 5675 5678 5682 5685 5687 5690 5693 5695 5698 5701 5704 5707 5709 5711 5713 5715 5717 5719 5721 5723 5726 5728 5731 5734 5737 5740 5742 5744 5746
5636 5636 5636 5637 5639 5640 5642 5644 5646 5649 5651 5654 5657 5660 5663 5667 5670 5672 5675 5678 5681 5683 5686 5689 5692 5695 5697 5699 5701 5703 5705 5707 5710 5712 5715 5717 5720 5722 5725 5729 5731 5733 5735
5627 5627 5627 5628 5629 5630 5632 5634 5636 5638 5641 5643 5645 5649 5652 5655 5658 5661 5663 5666 5669 5671 5674 5677 5679 5682 5684 5686 5688 5691 5693 5695 5698 5700 5703 5706 5708 5711 5713 5716 5719 5721 5724
5618 5618 5618 5618 5619 5621 5622 5624 5626 5628 5630 5632 5634 5637 5640 5643 5646 5648 5651 5654 5656 5659 5662 5664 5667 5669 5671 5674 5676 5678 5680 5683 5685 5688 5691 5693 5696 5698 5701 5704 5706 5709 5712
5610 5609 5609 5609 5610 5611 5612 5613 5614 5617 5619 5621 5623 5625 5627 5630 5633 5636 5638 5641 5643 5646 5648 5650 5653 5655 5658 5660 5663 5665 5667 5670 5673 5675 5678 5681 5683 5686 5688 5691 5694 5696 5699
5601 5600 5600 5600 5600 5601 5601 5602 5604 5605 5607 5609 5611 5614 5616 5618 5620 5623 5625 5627 5630 5632 5634 5636 5639 5641 5643 5646 5649 5651 5654 5656 5659 5662 5665 5667 5670 5672 5675 5678 5680 5683 5686
5593 5592 5591 5591 5591 5591 5591 5592 5593 5594 5595 5597 5599 5601 5603 5605 5608 5610 5612 5614 5616 5618 5620 5622 5624 5627 5629 5632 5635 5637 5640 5642 5645 5648 5652 5654 5657 5660 5662 5664 5667 5669 5672
5584 5583 5582 5581 5581 5581 5581 5581 5581 5582 5583 5585 5586 5588 5590 5592 5594 5596 5598 5600 5602 5604 5606 5608 5610 5613 5615 5618 5621 5623 5626 5629 5632 5635 5638 5641 5644 5647 5649 5651 5653 5656 5658
5575 5574 5573 5572 5572 5571 5571 5570 5571 5571 5572 5573 5574 5576 5577 5579 5580 5582 5584 5585 5587 5589 5591 5594 5596 5599 5601 5604 5607 5610 5612 5615 5618 5621 5624 5628 5630 5633 5636 5638 5640 5642 5645
5566 5565 5563 5563 5562 5561 5561 5560 5560 5560 5561 5562 5563 5564 5565 5566 5567 5569 5570 5571 5573 5575 5577 5579 5582 5585 5588 5590 5593 5596 5598 5602 5605 5608 5611 5614 5616 5619 5622 5624 5626 5628 5631
5557 5556 5554 5553 5552 5551 5551 5550 5550 5550 5550 5550 5551 5552 5553 5554 5554 5555 5556 5558 5559 5561 5563 5566 5568 5570 5573 5576 5578 5581 5585 5588 5591 5594 5597 5599 5602 5605 5608 5610 5612 5614 5616
5548 5546 5545 5543 5542 5541 5540 5540 5539 5539 5539 5539 5539 5540 5540 5541 5542 5542 5543 5544 5546 5547 5549 5551 5554 5556 5558 5561 5564 5567 5570 5573 5577 5580 5582 5585 5588 5590 5593 5595 5597 5599 5601
5538 5536 5534 5533 5532 5530 5530 5529 5528 5528 5527 5527 5527 5527 5528 5528 5529 5529 5530 5531 5532 5534 5536 5538 5540 5542 5544 5546 5548 5551 5555 5558 5562 5565 5568 5570 5573 5575 5577 5580 5582 5584 5586
5528 5526 5524 5523 5521 5520 5519 5518 5517 5516 5515 5515 5515 5516 5516 5516 5517 5517 5517 5518 5519 5521 5522 5524 5526 5528 5530 5532 5533 5536 5539 5543 5546 5550 5553 5555 5558 5560 5562 5564 5566 5568 5570
5518 5516 5514 5512 5511 5509 5508 5507 5505 5504 5504 5503 5503 5504 5504 5504 5504 5504 5505 5505 5506 5508 5509 5511 5513 5515 5516 5517 5519 5521 5524 5528 5532 5535 5537 5540 5542 5544 5546 5548 5550 5553 5554
5508 5506 5504 5502 5500 5498 5497 5496 5494 5493 5492 5492 5492 5491 5491 5491 5491 5492 5492 5492 5493 5494 5496 5497 5499 5501 5503 5504 5505 5507 5510 5514 5518 5520 5523 5525 5527 5529 5530 5533 5536 5538 5539
5498 5495 5493 5491 5489 5487 5486 5484 5483 5481 5480 5480 5479 5478 5478 5478 5478 5479 5479 5479 5480 5481 5483 5484 5485 5487 5489 5491 5492 5494 5497 5501 5504 5506 5508 5510 5512 5514 5514 5517 5520 5523 5524
5488 5485 5483 5481 5478 5476 5474 5473 5471 5470 5469 5468 5466 5465 5465 5465 5465 5466 5466 5467 5467 5468 5470 5471 5473 5474 5476 5478 5479 5480 5483 5486 5489 5491 5494 5496 5497 5499 5500 5502 5504 5507 5508
5478 5475 5473 5470 5468 5465 5464 5462 5461 5459 5458 5456 5455 5453 5453 5452 5452 5453 5453 5453 5454 5455 5457 5458 5459 5461 5462 5464 5465 5467 5469 5471 5474 5477 5480 5481 5483 5485 5486 5487 5489 5491 5492
5468 5465 5463 5460 5458 5455 5453 5451 5450 5448 5447 5446 5444 5442 5441 5440 5440 5440 5440 5441 5442 5443 5444 5445 5446 5448 5449 5451 5452 5453 5455 5457 5459 5462 5465 5467 5469 5470 5471 5473 5474 5475 5476
5458 5455 5453 5450 5447 5445 5443 5441 5439 5438 5437 5435 5434 5432 5431 5429 5429 5428 5429 5429 5430 5430 5431 5432 5433 5435 5436 5437 5438 5440 5441 5443 5445 5447 5450 5452 5453 5455 5457 5458 5459 5460 5461
5448 5445 5442 5440 5437 5435 5432 5430 5429 5428 5427 5425 5424 5422 5420 5419 5418 5418 5418 5418 5418 5418 5419 5419 5420 5421 5423 5424 5425 5426 5428 5430 5431 5433 5435 5437 5439 5441 5442 5444 5445 5446 5447
5438 5435 5432 5429 5427 5424 5422 5420 5418 5417 5416 5415 5413 5412 5410 5409 5408 5407 5407 5406 5406 5406 5406 5406 5407 5408 5410 5411 5412 5413 5414 5416 5417 5419 5421 5424 5425 5427 5429 5430 5431 5432 5433